Wind_Speed
34 34 34 32 31 30 31 27 27 36 36 36 39 46 46 29 19 22 33 30 23 22 23 22 18 18 18 19 20 13 11 11 19 24 26 24 23 18 23 19 7 18 17 27
32 29 28 27 26 31 31 33 33 29 31 35 39 38 42 41 36 25 13 19 21 22 19 13 19 14 15 16 13 6 7 5 8 17 24 22 25 18 17 13 14 17 13 19
40 28 28 28 26 26 32 32 29 34 34 36 28 33 34 35 32 43 30 20 18 17 17 20 12 12 8 10 15 15 10 12 11 12 16 15 20 25 21 18 15 13 19 20
28 29 32 33 32 32 31 33 39 32 16 37 43 36 33 21 30 33 27 27 22 21 20 22 23 23 21 18 18 18 17 21 26 29 29 27 27 30 28 29 31 29 40 36
27 25 23 25 23 30 29 33 35 38 43 27 21 26 41 40 30 21 22 28 33 28 35 28 25 23 25 24 17 24 26 23 18 24 28 28 31 34 40 42 40 41 41 40
25 24 20 21 23 25 29 31 35 26 31 33 31 37 30 28 29 34 32 24 25 28 25 29 31 32 28 18 16 18 23 25 21 31 27 26 23 33 34 35 35 35 39 39
29 27 25 22 22 20 19 19 22 28 35 36 29 29 27 31 19 15 18 21 26 28 28 21 21 23 21 20 25 23 25 27 23 23 22 15 29 29 30 34 34 34 38 39
27 25 25 23 22 22 20 21 20 18 23 22 30 19 21 27 19 27 20 18 22 25 16 21 20 26 22 32 29 29 30 31 29 28 25 26 30 32 27 27 31 28 30 26
30 27 24 26 24 22 23 21 20 18 17 12 9 7 8 5 8 5 2 4 7 15 10 8 7 6 12 9 15 22 32 37 35 27 15 14 36 24 20 22 25 21 21 17
31 29 26 25 27 24 25 23 25 21 19 17 11 7 2 3 4 3 10 6 7 6 8 7 13 18 16 19 17 18 15 27 31 28 17 17 26 26 23 14 12 9 7 11
32 29 24 25 27 26 25 22 22 21 21 20 10 12 15 10 8 11 9 11 11 9 9 6 5 4 6 15 23 23 25 14 10 12 10 13 17 10 8 9 11 16 18 24
30 31 28 25 30 26 23 23 22 20 23 13 14 20 22 19 17 15 11 9 10 7 5 7 9 8 8 9 13 9 12 11 18 20 12 10 16 6 0 13 14 17 20 25
25 29 29 25 23 27 24 22 21 22 22 21 22 20 17 15 14 14 17 17 11 19 15 14 15 16 14 12 9 14 9 17 25 30 18 9 13 9 5 19 15 16 19 12
24 27 28 27 24 28 27 19 26 23 20 19 14 11 15 11 14 15 17 17 19 24 18 16 17 15 11 15 16 19 17 21 12 10 4 6 3 4 9 8 19 13 11 12
25 26 26 25 23 20 22 21 28 25 20 7 9 10 13 15 11 11 14 17 17 21 24 25 26 20 20 27 24 27 15 17 20 10 4 4 7 5 9 14 10 16 16 13
25 25 23 22 20 20 19 15 19 24 20 21 18 11 10 12 16 17 16 15 19 20 21 25 25 23 18 16 26 25 18 20 15 14 10 10 12 16 13 11 12 10 11 13
25 24 23 20 19 19 20 17 17 18 16 15 16 14 6 10 14 17 17 17 19 19 21 26 24 20 19 29 39 28 26 26 25 17 12 14 13 12 9 9 7 10 11 11
23 22 21 20 20 17 17 22 17 14 16 12 9 9 10 10 16 17 20 23 23 27 29 24 20 21 24 29 30 19 15 12 10 14 15 16 12 8 8 7 9 11 11 11
25 23 21 16 18 28 33 15 10 9 12 10 15 13 14 11 16 16 17 19 26 28 28 31 23 25 32 32 24 25 13 14 8 10 11 9 9 8 7 8 10 12 16 18
24 23 20 20 18 15 6 4 8 10 14 18 24 17 19 11 9 12 10 13 17 15 24 19 33 40 36 26 20 9 7 7 10 16 12 6 5 8 13 15 18 20 23 24
24 23 15 10 8 7 6 6 7 6 9 19 22 20 23 20 22 20 13 8 8 11 20 19 14 28 29 32 26 23 17 9 12 10 8 13 13 15 18 19 21 22 23 24
18 13 12 11 7 4 4 4 5 8 7 8 11 9 11 12 17 20 12 12 8 11 10 16 9 14 14 16 20 32 27 18 18 16 14 15 18 18 17 19 21 23 23 23
11 9 7 4 5 7 6 8 9 8 13 18 18 16 14 18 15 12 8 9 13 11 6 3 4 2 2 12 11 15 20 21 23 16 15 18 18 18 18 19 20 23 24 23
7 4 4 4 5 6 13 16 16 18 21 15 13 14 12 10 14 11 7 8 4 4 3 2 2 5 3 7 17 23 24 16 13 14 16 17 17 17 18 22 28 28 28 26
3 4 4 10 12 17 18 17 20 17 19 20 22 21 20 15 10 7 0 1 3 3 4 2 4 2 9 9 10 12 10 11 13 15 16 16 16 18 19 26 27 25 24 24
5 5 6 9 12 16 11 9 11 9 6 6 9 12 5 4 4 4 4 3 2 2 1 1 6 6 7 5 5 6 9 12 14 15 16 17 17 18 19 24 25 24 25 24
4 5 6 7 8 6 5 6 8 7 8 8 6 2 2 2 2 3 4 3 3 3 3 2 1 2 4 7 10 13 15 16 15 15 16 16 16 18 20 24 24 23 19 19
Wind_Direction
252 256 257 257 258 254 248 235 242 237 241 228 230 228 230 231 236 252 247 236 243 237 227 223 216 228 237 221 215 215 206 229 261 257 260 256 257 261 254 249 243 237 249 259
247 244 246 245 249 250 250 249 249 244 232 237 231 229 235 242 233 230 254 238 235 233 221 222 219 225 230 238 221 201 224 219 267 264 254 252 257 255 262 297 276 266 254 260
247 245 242 246 248 237 239 239 244 244 236 243 248 248 251 249 245 239 241 222 224 220 241 259 249 243 273 282 293 295 257 272 254 261 279 295 294 292 284 296 285 290 279 291
250 249 251 253 253 243 240 233 233 234 231 249 250 255 246 257 242 240 227 235 240 232 241 243 247 256 253 258 264 274 273 262 263 269 274 278 279 280 280 272 269 261 279 283
248 235 240 244 247 242 241 232 235 238 238 250 253 250 259 255 244 239 253 267 274 252 243 239 246 248 247 250 248 243 243 251 259 256 265 265 267 266 269 275 274 271 267 271
240 233 236 244 239 234 242 234 234 245 242 244 245 249 259 257 258 254 251 256 253 241 236 235 240 238 240 248 242 243 237 239 247 253 266 274 268 254 259 264 267 269 273 273
236 234 230 235 236 244 234 233 242 249 253 247 256 259 257 260 254 264 254 250 260 261 261 266 263 251 244 249 250 244 253 257 258 267 277 272 268 276 269 271 273 274 274 275
236 229 227 223 233 228 226 216 236 257 259 255 243 268 269 254 254 258 242 242 253 278 264 261 245 254 246 249 248 245 242 248 252 251 254 265 275 270 281 282 276 277 288 283
231 231 235 221 224 223 222 221 224 259 259 266 249 245 314 339 187 2 66 246 235 223 249 226 219 227 237 241 246 248 240 238 235 240 242 259 262 282 297 284 273 269 283 309
229 228 234 223 219 221 223 223 224 237 254 258 278 291 312 338 330 306 314 322 301 269 297 264 243 242 239 249 254 261 272 238 240 248 250 259 279 276 271 256 300 306 316 293
224 223 227 219 218 215 221 224 225 232 244 246 262 258 265 271 269 286 291 297 293 267 262 283 333 347 225 253 256 259 268 264 241 238 243 264 275 283 276 286 293 292 302 285
219 217 217 219 218 213 217 224 229 229 237 238 247 247 248 245 230 249 261 252 288 289 262 257 270 300 315 308 274 253 265 263 285 261 260 265 320 247 103 321 312 330 316 284
214 209 211 214 217 211 220 226 229 235 243 254 259 263 266 248 237 244 248 246 251 261 257 252 268 268 280 279 275 282 303 283 267 281 265 341 332 352 21 313 306 325 345 314
209 204 205 207 211 214 219 229 232 233 238 244 255 280 279 282 271 255 249 252 237 243 248 260 252 247 260 259 270 290 283 291 274 260 240 258 270 256 282 314 324 344 356 4
199 200 201 204 213 215 220 246 225 229 227 227 229 223 265 281 276 288 259 260 256 240 240 246 249 251 256 264 271 266 268 277 283 284 286 331 318 314 281 302 318 319 340 339
188 191 192 195 202 208 212 209 218 222 228 235 257 264 261 267 284 275 244 240 247 247 239 241 247 240 242 259 262 259 261 276 310 295 299 303 297 290 296 309 310 306 282 301
180 181 187 190 195 200 201 206 216 208 221 242 264 277 266 268 247 254 255 243 240 249 255 248 246 240 241 251 255 256 256 269 273 255 282 293 286 290 295 286 293 279 296 295
165 172 179 188 200 201 213 214 198 210 219 223 239 256 267 260 272 254 239 245 245 245 248 253 252 254 234 255 261 259 245 272 274 273 252 267 277 269 271 304 317 313 311 302
158 159 173 183 204 212 209 235 206 196 213 221 243 247 275 254 256 257 257 247 243 246 247 248 243 243 229 238 249 246 233 250 220 254 254 236 242 254 281 292 293 288 289 290
156 159 166 175 177 178 176 215 219 237 242 248 256 256 248 247 261 282 278 247 238 249 256 249 239 243 243 244 250 251 203 252 214 234 243 233 281 261 257 274 290 296 296 297
149 154 160 168 160 170 204 220 218 237 259 269 276 266 256 242 255 270 278 262 258 248 241 212 240 249 251 239 227 225 229 212 241 247 231 240 265 276 282 288 292 294 296 299
158 165 160 159 173 198 223 233 236 237 255 260 258 244 248 256 249 251 261 263 261 255 222 196 244 259 258 248 239 222 224 226 237 238 237 260 278 281 286 290 295 296 292 285
150 157 164 161 213 225 225 224 230 230 258 269 271 262 238 241 242 228 241 234 238 267 285 273 263 299 181 208 216 217 195 225 232 229 247 268 274 279 285 291 299 302 296 286
158 168 198 216 239 237 244 259 253 244 255 261 266 282 266 260 214 227 242 224 251 251 282 257 277 221 258 151 175 182 205 212 210 244 264 266 274 288 296 305 307 302 290 280
203 215 230 239 249 249 266 277 284 277 270 272 265 274 268 266 208 196 209 227 254 236 288 56 106 191 204 155 150 163 192 224 251 257 261 275 284 290 308 316 314 309 299 292
248 248 269 297 304 318 310 291 278 315 278 242 242 254 243 174 176 166 198 236 260 211 235 190 155 132 149 170 208 245 262 266 264 266 277 281 292 295 305 324 305 302 302 296
245 284 296 312 324 320 314 325 334 329 325 271 269 290 46 71 236 205 195 235 188 214 164 129 29 311 285 284 287 281 271 264 264 273 284 294 296 302 303 313 310 306 306 311
Height
2959 2962 2964 2966 2970 2973 2976 2978 2975 2982 2984 2987 2980 2980 2982 2987 2992 2989 2991 2993 2993 2993 2994 2995 2998 3000 2999 3000 2999 3003 3001 3002 3002 3003 3005 3009 3009 3007 3010 3008 3004 3001 3001 2997
2949 2952 2956 2957 2961 2963 2970 2969 2969 2974 2977 2973 2972 2974 2977 2981 2985 2984 2983 2984 2987 2988 2989 2991 2991 2993 2994 2995 2993 2995 2997 2998 2998 2996 2999 3001 3002 3003 3003 2999 2998 2995 2997 2991
2939 2944 2947 2950 2953 2957 2959 2963 2962 2964 2965 2966 2967 2969 2970 2974 2973 2977 2977 2980 2982 2983 2984 2985 2986 2989 2990 2993 2991 2990 2995 2997 2998 2995 2995 3000 2997 2997 2998 2999 2997 2992 2989 2991
2932 2936 2940 2941 2946 2949 2951 2952 2951 2956 2956 2956 2961 2965 2964 2965 2968 2967 2970 2970 2973 2977 2979 2982 2982 2981 2986 2989 2990 2990 2991 2991 2994 2995 2993 2992 2991 2992 2993 2992 2991 2990 2985 2987
2926 2929 2931 2935 2937 2940 2942 2945 2946 2952 2951 2953 2956 2958 2959 2960 2960 2963 2962 2961 2967 2969 2970 2974 2977 2980 2981 2984 2987 2985 2985 2984 2988 2986 2987 2985 2985 2987 2982 2979 2980 2980 2979 2975
2919 2923 2926 2929 2932 2934 2937 2940 2943 2944 2944 2949 2949 2951 2950 2951 2955 2957 2956 2957 2957 2958 2961 2962 2965 2968 2972 2975 2979 2980 2982 2981 2980 2978 2980 2979 2976 2973 2973 2971 2971 2972 2968 2966
2913 2917 2921 2924 2926 2928 2933 2937 2940 2940 2938 2943 2944 2945 2945 2946 2947 2946 2948 2951 2953 2955 2953 2955 2958 2962 2966 2969 2971 2975 2976 2976 2977 2973 2975 2971 2964 2967 2966 2964 2963 2962 2961 2960
2906 2910 2914 2918 2922 2925 2928 2934 2934 2936 2936 2938 2938 2939 2939 2941 2940 2943 2944 2945 2948 2950 2950 2953 2955 2958 2961 2959 2961 2964 2968 2969 2968 2968 2966 2963 2961 2957 2962 2957 2954 2955 2951 2949
2899 2904 2909 2913 2917 2921 2924 2929 2931 2932 2933 2935 2934 2936 2937 2936 2938 2941 2939 2941 2944 2948 2949 2949 2951 2951 2952 2952 2953 2954 2955 2956 2962 2960 2957 2955 2946 2953 2953 2950 2946 2944 2943 2944
2893 2898 2903 2908 2912 2916 2920 2924 2927 2929 2930 2933 2935 2935 2936 2937 2938 2940 2939 2940 2943 2944 2945 2945 2946 2946 2949 2949 2950 2949 2948 2949 2950 2951 2948 2949 2947 2945 2947 2948 2947 2940 2939 2940
2886 2893 2898 2903 2908 2912 2916 2921 2924 2927 2927 2929 2932 2934 2935 2937 2939 2940 2941 2942 2942 2943 2945 2944 2942 2940 2943 2944 2943 2944 2945 2946 2942 2945 2945 2944 2940 2942 2942 2941 2940 2939 2938 2934
2879 2887 2893 2898 2903 2908 2913 2916 2920 2923 2924 2927 2926 2928 2930 2932 2934 2935 2936 2940 2941 2941 2942 2943 2943 2944 2943 2943 2941 2941 2942 2943 2939 2943 2937 2936 2936 2936 2937 2937 2937 2934 2930 2926
2875 2881 2888 2894 2899 2904 2909 2913 2916 2919 2922 2923 2925 2926 2928 2928 2930 2932 2934 2936 2940 2939 2940 2940 2941 2943 2941 2942 2940 2937 2938 2937 2934 2932 2932 2930 2931 2932 2932 2934 2933 2929 2925 2923
2872 2878 2884 2891 2896 2901 2905 2909 2913 2917 2920 2921 2923 2924 2923 2925 2926 2928 2930 2932 2934 2935 2936 2935 2936 2938 2937 2938 2935 2933 2937 2934 2933 2930 2931 2934 2933 2933 2934 2933 2928 2927 2926 2923
2869 2876 2882 2888 2894 2898 2903 2906 2909 2914 2919 2919 2920 2922 2922 2922 2923 2923 2923 2924 2926 2927 2930 2929 2930 2932 2934 2930 2929 2925 2930 2930 2928 2922 2927 2926 2929 2928 2929 2928 2928 2926 2924 2923
2868 2874 2881 2887 2892 2896 2900 2904 2908 2911 2914 2917 2918 2919 2918 2920 2919 2918 2919 2921 2922 2922 2923 2923 2923 2925 2928 2923 2917 2921 2924 2926 2924 2926 2925 2926 2926 2926 2925 2925 2926 2925 2925 2923
2868 2874 2881 2887 2891 2895 2899 2902 2905 2909 2912 2914 2916 2915 2915 2915 2915 2915 2915 2916 2917 2917 2916 2915 2917 2919 2920 2916 2908 2915 2918 2920 2920 2920 2921 2922 2924 2924 2924 2923 2923 2923 2922 2922
2869 2876 2882 2887 2890 2895 2897 2899 2902 2907 2910 2912 2912 2911 2912 2913 2910 2911 2911 2910 2911 2910 2909 2910 2911 2912 2914 2904 2901 2907 2910 2913 2914 2915 2917 2919 2919 2919 2920 2920 2920 2919 2919 2919
2871 2877 2882 2888 2891 2894 2895 2900 2902 2904 2909 2907 2907 2908 2909 2908 2907 2906 2906 2905 2904 2903 2900 2901 2906 2903 2896 2891 2898 2901 2903 2908 2910 2914 2913 2913 2914 2916 2917 2918 2918 2916 2915 2914
2875 2881 2885 2889 2891 2893 2895 2899 2902 2903 2902 2901 2900 2903 2903 2906 2904 2903 2903 2900 2898 2895 2892 2896 2891 2885 2889 2892 2895 2896 2900 2904 2906 2907 2909 2910 2912 2914 2913 2912 2911 2909 2908 2907
2880 2883 2887 2890 2892 2895 2897 2899 2899 2899 2897 2895 2894 2895 2896 2900 2901 2901 2900 2896 2893 2887 2885 2885 2882 2877 2878 2883 2888 2891 2896 2899 2903 2905 2907 2907 2907 2907 2907 2906 2905 2903 2901 2900
2883 2886 2889 2891 2894 2895 2897 2896 2896 2895 2895 2894 2893 2893 2895 2896 2896 2896 2896 2893 2891 2881 2873 2876 2874 2874 2875 2876 2879 2884 2890 2893 2899 2900 2901 2902 2902 2901 2901 2900 2899 2897 2895 2894
2887 2889 2891 2893 2894 2894 2893 2892 2892 2892 2890 2889 2889 2889 2889 2890 2891 2891 2890 2887 2882 2878 2874 2872 2873 2870 2872 2874 2877 2880 2887 2890 2893 2895 2897 2897 2897 2897 2896 2894 2892 2890 2888 2887
2889 2891 2892 2892 2891 2889 2888 2888 2888 2888 2885 2885 2885 2885 2885 2884 2884 2884 2880 2879 2878 2876 2874 2873 2871 2871 2872 2872 2875 2879 2882 2887 2890 2892 2892 2893 2892 2891 2889 2887 2884 2881 2879 2878
2890 2892 2891 2888 2887 2886 2884 2883 2882 2882 2881 2881 2881 2880 2879 2877 2878 2878 2878 2878 2876 2874 2872 2870 2870 2872 2873 2875 2877 2881 2883 2885 2886 2887 2888 2887 2886 2885 2882 2879 2876 2874 2871 2869
2890 2888 2887 2885 2884 2882 2880 2880 2879 2877 2876 2877 2877 2875 2871 2873 2874 2876 2876 2876 2874 2874 2872 2872 2872 2873 2875 2877 2878 2880 2881 2882 2883 2883 2883 2882 2880 2878 2876 2874 2871 2869 2865 2862
2887 2885 2884 2883 2882 2881 2880 2879 2878 2876 2876 2875 2874 2873 2873 2874 2873 2874 2874 2874 2873 2873 2873 2874 2874 2875 2876 2877 2877 2878 2878 2878 2878 2877 2877 2876 2874 2873 2871 2869 2865 2862 2859 2856